Regional Weather Roundup
Issued by NWS

Home | Current Version | Previous Version | Text Only | Print | Product List | Glossary On
Versions: 1 2 3 4 5 6 7 8 9 10 11 12 13 14 15 16 17 18 19 20 21 22 23 24 25 26 27 28 29 30 31 32 33 34 35 36 37 38 39 40 41 42 43 44 45 46 47 48 49 50
000
ASUS45 KABQ 161010
RWRNM
WEATHER ROUNDUP FOR NEW MEXICO
NATIONAL WEATHER SERVICE ALBUQUERQUE NM
400 AM MDT TUE SEP 16 2014

NOTE: "FAIR" MEANS FEW OR NO CLOUDS BELOW 12,000 FEET AGL WITH NO
       SIGNIFICANT WEATHER OR OBSTRUCTIONS TO VISION.

      THIS PRODUCT IS RELEASED AS TWO VERSIONS.  ONE VERSION NEAR
      THE TOP OF THE HOUR CONTAINING PRELIMINARY DATA FROM ALBUQUERQUE
      AND OTHER STATIONS.  A FINAL VERSION WITH ADDITIONAL DATA IS
      ISSUED ABOUT 10 MINUTES AFTER THE HOUR.

NMZ501-503-504-510>518-161100-
NORTHWEST PLATEAU/NORTHCENTRAL MOUNTAINS

CITY           SKY/WX    TMP DP  RH WIND       PRES   REMARKS
FARMINGTON     CLEAR     59  44  57 NE6       30.27S
LOS ALAMOS     CLOUDY    58  53  83 S7        30.42S
SANTA FE       CLOUDY    60  53  77 S5        30.36F
ANGEL FIRE     CLOUDY    39  37  90 SE6       30.49S

$$
NMZ402-403-502-505>509-161100-
WESTCENTRAL MOUNTAINS/SOUTHWEST MOUNTAINS

CITY           SKY/WX    TMP DP  RH WIND       PRES   REMARKS
GALLUP         MOCLDY    59  52  77 CALM      30.31F
GRANTS         CLOUDY    57  52  82 S6        30.37F
SILVER CITY    LGT RAIN  63  63 100 S5        30.30S

$$
NMZ407-409-411-412-161100-
SOUTHERN DESERTS

CITY           SKY/WX    TMP DP  RH WIND       PRES   REMARKS
LORDSBURG      DRIZZLE   64  63  94 SE7       30.20S
DEMING         LGT RAIN  67  66  97 NE3       30.21F
LAS CRUCES     CLOUDY    65  64  94 SE6       30.24S
HOLLOMAN AFB   MOCLDY    68  63  84 CALM      30.19F
ALAMOGORDO     MOCLDY    66  64  94 N3        30.22S
T OR C         LGT RAIN  63  62  97 N8        30.24F

$$
NMZ519>523-161100-
CENTRAL VALLEYS/CENTRAL HIGHLANDS

CITY           SKY/WX    TMP DP  RH WIND       PRES   REMARKS
ALBUQUERQUE    CLOUDY    66  57  72 NE7       30.30S
DOUBLE EAGLE   CLOUDY    60  57  90 N3        30.33F
MORIARTY ARPT  CLOUDY    58  55  88 CALM      30.37F
CLINES CORNERS CLOUDY    56  54  93 CALM      30.40S
BELEN          CLOUDY    64  59  85 CALM      30.29S
SOCORRO        LGT RAIN  64  62  95 CALM      30.27F

$$
NMZ524>526-539-540-161100-
SOUTHCENTRAL MOUNTAINS

CITY           SKY/WX    TMP DP  RH WIND       PRES   REMARKS
RUIDOSO        NOT AVBL

$$
NMZ527>531-161100-
NORTHEAST HIGHLANDS/NORTHEAST PLAINS

CITY           SKY/WX    TMP DP  RH WIND       PRES   REMARKS
LAS VEGAS      CLOUDY    54  53  97 S10       30.38F
RATON          CLOUDY    54  51  90 CALM      30.35S
CLAYTON        CLOUDY    56  52  86 S12       30.28F

$$
NMZ532>537-161100-
EASTCENTRAL PLAINS

CITY           SKY/WX    TMP DP  RH WIND       PRES   REMARKS
TUCUMCARI      CLOUDY    62  56  80 NE6       30.27F
CANNON AFB     CLOUDY    61  57  88 NE10      30.28F FOG
CLOVIS AIRPORT   N/A     61  57  88 NE12      30.30F

$$
NMZ028-029-538-161100-
SOUTHEAST PLAINS

CITY           SKY/WX    TMP DP  RH WIND       PRES   REMARKS
ROSWELL        CLOUDY    67  64  90 E3        30.22F
CARLSBAD       CLOUDY    69  32  25 E3        30.19F HAZE
HOBBS          CLOUDY    66  66 100 CALM      30.24S


$$



USA.gov is the U.S. government's official web portal to all federal, state and local government web resources and services.